www.pogodaiklimat.ru

Погода и климат >> Архив погоды >> Германия >> Констанция


ПОГОДА в Констанции

  • Прогноз погоды в Констанции
  • Монитор погоды в Констанции

АРХИВ ПОГОДЫ в Констанции

Время (UTC), дата Ветер
(напр.,м/с)
 
Видим.   Явления Облачность Т
(С)
Тd
(С)
f
(%)
Тe
(С)
Тes
(С)
Комфортность P
(гПа)
Po
(гПа)
Тmin
(С)
Tmax
(С)
R
(мм)
R24
(мм)
S
(см)
22 10.06 З 3 5000 м слаб. дождь 9/9 30 м
[]
+14.3 +13.8 97 +13 +13 1012.4 960.9
23 10.06 З 4 45 км слаб. дождь 9/9 210 м
[]
+13.5 +12.7 95 +12 +12 1012.7 961.0
00 11.06 З 3 5000 м дождь {морось} 10/10 <50 м
[]
+13.0 +12.2 95 +12 +12 1012.6 960.8 8
01 11.06 З 3 9000 м слаб. дождь 9/9 90 м
[]
+12.9 +12.2 96 +11 +11 1014.4 962.5
02 11.06 СЗ 1 3000 м дождь 9/9 120 м
[]
+12.6 +12.1 97 +12 +12 1014.2 962.3
03 11.06 Ю 2 22 км слаб. дождь 9/9 30 м
[]
+12.2 +11.6 96 +11 +11 1013.5 961.5 10
04 11.06 ЮВ 2-3
{5}
70 км в посл. час дождь {морось} 8/8 450 м
[]
+11.6 +10.7 94 +10 +10 1012.4 960.4
05 11.06 СВ 2-4
{5}
70 км 1/1 240 м
[]
+12.1 +11.2 94 +11 +12 1011.4 959.5
06 11.06 СВ 2 50 км {дождь, морось} ясно +13.1 +11.6 91 +12 +16 1010.8 959.1 +11.5 +16.2 22
07 11.06 СВ 2-5
{5}
55 км ясно +15.7 +11.6 77 +16 +22 1009.9 958.7
08 11.06 С 3 45 км 5/0
[]
+17.1 +11.8 71 +17 +24 1009.4 958.5
09 11.06 С 3 70 км 9/9 960 м
[]
+17.1 +11.6 70 +17 +18 1009.4 958.5
10 11.06 С 2-4
{5}
70 км 10/10 840 м
[]
+16.8 +11.9 73 +17 +17 1009.5 958.5
11 11.06 З 2 70 км 10/10 800 м
[]
+16.3 +11.8 75 +16 +16 1009.6 958.5
12 11.06 З 2 70 км 10/10 840 м
[]
+17.2 +12.4 73 +18 +18 1009.2 958.3
13 11.06 З 4 55 км 10/10 700 м
[]
+17.2 +12.4 73 +17 +17 1009.7 958.8
14 11.06 СЗ 2-5
{5}
65 км 10/10 660 м
[]
+17.2 +12.5 74 +18 +18 1009.8 958.9
15 11.06 З 3 55 км 10/10 660 м
[]
+17.1 +12.4 74 +17 +17 1009.7 958.8
16 11.06 З 3-5
{6}
30 км 10/10 570 м
[]
+16.5 +12.6 78 +16 +16 1010.0 959.0
17 11.06 З 3-5
{6}
30 км 10/10 540 м
[]
+16.0 +12.4 79 +16 +16 1010.2 959.1
18 11.06 З 2 35 км 10/10 300 м
[]
+15.9 +12.3 79 +16 +16 1010.7 959.5 +13.1 +17.7
19 11.06 З 2-4
{6}
35 км в посл. час морось 10/10 500 м
[]
+15.7 +12.5 81 +16 +16 1010.4 959.2
20 11.06 З 3-5
{5}
17 км 10/10 480 м
[]
+15.2 +12.6 84 +14 +14 1010.8 959.5
21 11.06 З 2 11 км {морось, дымка} 10/10 180 м
[]
+14.7 +13.1 90 +14 +14 1010.1 958.8 0.0
22 11.06 ЮЗ 1-1
{4}
5000 м морось {дымка} 10/10 330 м
[]
+14.5 +13.5 94 +15 +15 1010.4 959.0
23 11.06 СЗ 1 12 км в посл. час морось 10/10 90 м
[]
+14.5 +13.7 95 +15 +15 1009.7 958.4
00 12.06 СЗ 1 12 км {морось, дымка} 10/10 200 м
[]
+14.5 +13.6 94 +15 +15 1009.0 957.7 0.0
01 12.06 З 1-2
{2}
11 км 10/10 240 м
[]
+14.7 +13.9 95 +15 +15 1009.2 957.9
02 12.06 СВ 1-2
{3}
8000 м слаб. дождь {морось} 10/10 240 м
[]
+14.6 +13.7 94 +15 +15 1008.1 956.9
03 12.06 З 1 4100 м слаб. дождь {морось} 10/10 90 м
[]
+14.4 +14.1 98 +15 +15 1007.5 956.3 2
04 12.06 ЮЗ 2 3300 м слаб. дождь 10/10 90 м
[]
+14.1 +13.7 97 +13 +13 1007.8 956.5
05 12.06 З 2 3100 м дождь {ливн. осадки} 9/9 30 м
[]
+13.8 +13.7 99 +13 +13 1007.7 956.3
06 12.06 ЮЗ 2 2200 м дождь {морось} 10/10 <50 м
[]
+13.5 +13.1 97 +13 +13 1008.4 956.9 +13.5 +16.0 16
07 12.06 З 6 15 км слаб. морось с дождем 10/10 240 м
[]
+12.4 +11.4 94 +10 +10 1009.7 958.0
08 12.06 З 8 16 км слаб. дождь 10/10 420 м
[]
+11.6 +10.2 91 +8 +8 1011.3 959.3
09 12.06 З 4 55 км в посл. час дождь {морось} 10/10 500 м
[]
+12.3 +10.0 86 +10 +10 1012.4 960.5 4
10 12.06 ЮЗ 3 55 км в посл. час дождь {морось} 10/0
[]
+13.4 +9.7 78 +12 +19 1012.4 960.7
11 12.06 ЮЗ 3 70 км 8/8 570 м
[]
+15.3 +10.0 71 +15 +18 1012.4 961.0
12 12.06 З 2 70 км {дождь, морось} 10/10 800 м
[]
+16.3 +10.2 67 +16 +16 1012.3 961.1 0.0
13 12.06 З 2-4
{4}
45 км 1/1 840 м
[]
+18.0 +9.3 57 +19 +33 опасность
простуды
1011.8 960.9
14 12.06 В 3-5
{6}
29 км ясно +17.5 +12.0 70 +18 +29 1011.9 960.9
15 12.06 В 2-4
{6}
26 км ясно +18.8 +11.2 61 +20 +30 1011.5 960.8
16 12.06 ЮВ 2-3
{4}
50 км ясно +19.3 +11.0 59 +21 +27 комфорт 1011.3 960.6
17 12.06 В 2-3
{4}
55 км ясно +18.7 +10.7 60 +20 +23 1011.3 960.5
18 12.06 ЮВ 2 70 км ясно +17.3 +10.4 64 +18 +18 1012.1 961.1 +11.5 +19.8
19 12.06 В 2 70 км 10/0
[]
+16.0 +11.9 77 +16 +16 1012.6 961.3
20 12.06 ЮВ 2 70 км 10/0
[]
+15.4 +11.1 76 +15 +15 1013.1 961.7
21 12.06 ЮВ 1 70 км 1/0
[]
+14.4 +11.0 80 +15 +15 1013.6 962.0
22 12.06 С 2-3
{3}
70 км 9/9 1500 м
[]
+13.8 +11.3 85 +13 +13 1013.9 962.2
23 12.06 С 1-2
{4}
70 км 9/9 1500 м
[]
+13.8 +11.5 86 +14 +14 1014.2 962.5
00 13.06 штиль 0 50 км 9/9 1500 м
[]
+13.8 +11.8 88 +13 +13 1014.4 962.7
01 13.06 СЗ 1-2
{2}
65 км 10/10 1500 м
[]
+13.9 +11.8 87 +14 +14 1014.7 963.0
02 13.06 С 1-1
{2}
60 км 10/0 2000 м
[]
+13.5 +11.8 89 +14 +14 1014.8 963.0
03 13.06 С 2 50 км 9/0 2000 м
[]
+13.0 +11.7 92 +12 +12 1014.8 962.9
04 13.06 Ю 1-1
{3}
60 км 9/0 2000 м
[]
+13.2 +11.9 92 +13 +13 1015.4 963.5
05 13.06 штиль 0-1
{2}
45 км 5/0 2000 м
[]
+13.0 +11.9 93 +12 +14 1015.4 963.5
06 13.06 З 1 50 км 5/0 2000 м
[]
+14.3 +11.5 83 +15 +18 1015.6 963.9 +12.9 +17.5
07 13.06 В 2-3
{3}
50 км ясно +16.6 +12.5 77 +17 +23 1015.1 963.8
08 13.06 В 1-2
{3}
50 км ясно +17.6 +11.6 68 +19 +31 опасность
простуды
1014.8 963.7
09 13.06 В 2 30 км ясно +19.2 +11.8 62 +21 +35 комфорт 1014.5 963.7
10 13.06 СЗ 2 65 км 9/9 800 м
[]
+19.2 +11.2 60 +21 +22 комфорт 1014.5 963.7
11 13.06 В 1-2
{4}
50 км 1/1 1110 м
[]
+22.3 +12.6 54 +25 +44 комфорт 1013.9 963.6
12 13.06 Ю 1 30 км 1/1 1380 м
[]
+22.1 +10.0 46 +24 +43 комфорт 1013.7 963.4
13 13.06 СЗ 2-4
{6}
60 км 5/5 1500 м
[]
+22.1 +8.9 43 +23 +32 комфорт 1013.5 963.2
14 13.06 З 3-6
{6}
65 км 8/8 1500 м
[]
+22.9 +7.8 38 +24 +26 комфорт 1013.2 963.0
15 13.06 СЗ 3-5
{8}
35 км ясно +23.8 +8.6 38 +24 +32 комфорт 1012.9 962.9
16 13.06 З 2-5
{5}
35 км ясно +23.6 +8.6 38 +24 +30 комфорт 1013.2 963.1
17 13.06 З 2-5
{5}
40 км ясно +23.7 +8.0 37 +24 +27 комфорт 1013.4 963.3
18 13.06 ЮЗ 2 70 км ясно +23.4 +6.6 34 +24 +25 комфорт 1013.8 963.6 +14.3 +24.5
19 13.06 В 3-4
{4}
70 км ясно +19.9 +11.0 56 +22 +22 комфорт 1014.5 963.8
20 13.06 ЮВ 2-2
{3}
70 км ясно +18.9 +10.9 60 +20 +20 1015.1 964.2
21 13.06 В 2-2
{4}
70 км ясно +16.7 +12.2 75 +17 +17 1015.7 964.4
22 13.06 СВ 2-2
{3}
70 км ясно +15.7 +12.2 80 +16 +16 1016.4 964.9
23 13.06 СВ 2-2
{3}
70 км ясно +14.8 +11.6 81 +14 +14 1016.6 964.9
00 14.06 СВ 2 70 км ясно +14.1 +11.4 84 +14 +14 1016.6 964.8
01 14.06 С 2-3
{3}
65 км ясно +13.5 +11.7 89 +13 +13 1016.5 964.6
02 14.06 С 3-4
{4}
55 км ясно +13.2 +11.3 88 +12 +12 1016.2 964.3
03 14.06 СЗ 1-2
{4}
50 км ясно +12.6 +10.9 89 +13 +13 1016.2 964.1
04 14.06 С 2-2
{3}
45 км ясно +12.1 +10.6 91 +11 +11 1016.0 963.9
05 14.06 З 1 45 км 8/0
[]
+13.3 +11.3 88 +13 +14 1015.5 963.6
06 14.06 З 2 35 км 5/0
[]
+15.0 +11.9 82 +15 +17 1015.5 963.9 +12.0 +23.6
07 14.06 З 2 45 км 8/0
[]
+17.2 +12.4 73 +18 +22 1015.4 964.2
08 14.06 З 3-4
{5}
40 км ясно +19.2 +12.5 65 +21 +29 комфорт 1015.6 964.7
09 14.06 З 3 35 км 4/0
[]
+20.8 +12.2 58 +23 +33 комфорт 1015.3 964.7
10 14.06 З 4 35 км 9/0
[]
+22.8 +12.3 52 +26 +32 жарко 1015.7 965.4
11 14.06 З 3 65 км 10/0
[]
+24.7 +10.3 40 +26 +33 жарко 1015.6 965.6
12 14.06 ЮЗ 3 70 км 10/0
[]
+25.4 +8.7 35 +26 +33 жарко 1015.2 965.3
13 14.06 Ю 2 70 км 10/0
[]
+26.4 +15.5 51 +29 +38 жарко 1014.0 964.5
14 14.06 ЮВ 2 45 км 10/0
[]
+26.9 +14.9 48 +30 +36 душно 1013.0 963.6
15 14.06 В 3 55 км 10/0
[]
+22.8 +13.8 57 +26 +30 жарко 1013.0 962.9
16 14.06 В 3 45 км 10/0
[]
+24.7 +12.8 47 +27 +29 жарко 1011.7 961.9
17 14.06 В 2-2
{6}
70 км 10/0
[]
+22.8 +12.6 53 +26 +27 жарко 1010.9 960.9
18 14.06 В 2 70 км 10/0
[]
+23.0 +12.9 53 +26 +26 жарко 1010.5 960.5 +15.1 +27.4
19 14.06 В 2-2
{4}
70 км 3/0
[]
+22.6 +13.1 55 +26 +26 жарко 1009.8 959.8
20 14.06 ЮВ 3 70 км 10/0
[]
+22.4 +13.5 57 +25 +25 комфорт 1010.1 960.1
21 14.06 В 4 70 км в посл. час дождь {морось} 9/0
[]
+21.8 +14.4 63 +25 +25 комфорт 1010.0 959.9 0.0
22 14.06 СЗ 3 10 км слаб. дождь 10/10 30 м
[]
+19.1 +16.9 87 +21 +21 комфорт 1010.6 960.1
23 14.06 В 3 55 км в посл. час дождь {морось} 10/0 2000 м
[]
+18.7 +16.0 84 +20 +20 1009.8 959.2
00 15.06 ЮВ 2 50 км слаб. дождь {морось} 9/0
[]
+19.3 +14.5 74 +21 +21 комфорт 1009.0 958.5 2
01 15.06 ЮВ 4 70 км в посл. час дождь 10/0
[]
+21.4 +12.3 56 +24 +24 комфорт 1007.7 957.6
02 15.06 В 3 70 км 10/0
[]
+19.3 +14.0 71 +21 +21 комфорт 1008.3 957.9
03 15.06 СЗ 3 70 км {дождь} 10/0
[]
+18.4 +14.2 77 +19 +19 1010.9 960.2 0.0
04 15.06 З 8 30 км 10/0
[]
+17.4 +13.3 77 +16 +16 1013.0 962.0
05 15.06 ЮЗ 6 50 км 10/0
[]
+17.2 +13.1 77 +16 +17 1013.5 962.4
06 15.06 З 3 70 км {дождь} 10/0
[]
+17.7 +13.1 74 +18 +19 1014.3 963.3 +16.9 +23.4 2
07 15.06 З 5 70 км 10/0
[]
+19.2 +13.2 68 +20 +22 1014.5 963.7
08 15.06 З 5 45 км 9/9 800 м
[]
+20.6 +13.4 63 +23 +24 комфорт 1014.9 964.3
09 15.06 З 5 70 км 9/0
[]
+19.9 +12.4 62 +21 +26 комфорт 1015.8 965.0
10 15.06 З 6 30 км 9/0
[]
+20.5 +11.9 58 +22 +26 комфорт 1015.7 965.0
11 15.06 З 5 45 км 10/0 2000 м
[]
+20.9 +11.9 56 +23 +28 комфорт 1015.6 965.0
12 15.06 ЮЗ 4 60 км 9/0 2000 м
[]
+21.8 +13.1 58 +24 +31 комфорт 1015.5 965.1
13 15.06 ЮЗ 3 55 км 9/0 2000 м
[]
+23.4 +12.8 51 +26 +34 жарко 1014.8 964.7
14 15.06 ЮЗ 2 55 км 9/0 2000 м
[]
+23.4 +11.5 47 +26 +33 жарко 1014.2 964.1
15 15.06 В 3 50 км 10/0
[]
+24.0 +13.5 52 +26 +30 жарко 1013.8 963.8
16 15.06 В 2 60 км 10/0 2000 м
[]
+24.9 +13.2 48 +27 +30 жарко 1012.9 963.1
17 15.06 ЮВ 2 70 км 10/10 1300 м
[]
+22.5 +12.6 54 +25 +25 комфорт 1013.3 963.1
18 15.06 С 1 70 км 10/10 1000 м
[]
+22.1 +13.2 57 +25 +25 комфорт 1013.4 963.1 +17.6 +25.5
19 15.06 В 2-5
{5}
70 км в посл. час дождь 10/10 1350 м
[]
+20.7 +13.9 65 +24 +24 комфорт 1013.5 963.0
20 15.06 З 6 8000 м слаб. дождь 10/10 90 м
[]
+13.6 +13.3 98 +11 +11 1019.1 967.1
21 15.06 З 5 22 км слаб. дождь 10/10 60 м
[]
+13.8 +13.2 96 +12 +12 1019.3 967.3 26
22 15.06 З 2 13 км слаб. дождь {морось} 10/10 1300 м
[]
+14.0 +13.5 97 +13 +13 1020.2 968.2
23 15.06 З 3 70 км слаб. дождь 10/10 30 м
[]
+13.9 +13.1 95 +13 +13 1020.5 968.5
00 16.06 З 2 55 км слаб. дождь 10/0
[]
+13.9 +13.2 96 +13 +13 1020.6 968.6 1
01 16.06 ЮЗ 1 60 км слаб. дождь {морось} 10/10 150 м
[]
+13.8 +13.3 97 +14 +14 1020.6 968.6
02 16.06 Ю 1-1
{2}
50 км в посл. час дождь {морось} 9/9 450 м
[]
+14.1 +13.6 97 +14 +14 1020.5 968.5
03 16.06 ЮЗ 2 70 км {дождь, морось} 9/9 500 м
[]
+14.1 +13.0 93 +14 +14 1020.6 968.6 0.3
04 16.06 З 3 70 км 4/4 600 м
[]
+13.9 +12.1 89 +13 +13 1020.6 968.6
05 16.06 З 2 70 км 6/6 750 м
[]
+14.0 +12.3 89 +13 +14 1020.9 968.9
06 16.06 З 4 70 км {дождь, морось} 10/10 600 м
[]
+14.7 +12.2 85 +13 +13 1021.3 969.4 +12.2 +22.2 27
07 16.06 З 3 10 км морось {дождь} 10/10 120 м
[]
+13.6 +12.8 95 +12 +12 1022.1 970.0
08 16.06 З 2 25 км в посл. час дождь {морось} 10/10 150 м
[]
+14.3 +13.0 92 +14 +14 1022.4 970.4
09 16.06 З 2 70 км в посл. час дождь {морось} 10/10 210 м
[]
+15.8 +13.5 86 +16 +16 1022.3 970.5 0.3
10 16.06 З 2 55 км 9/9 480 м
[]
+17.8 +11.6 67 +18 +20 1022.1 970.7
11 16.06 ЮЗ 2 70 км 10/10 660 м
[]
+18.2 +11.3 64 +19 +19 1022.0 970.6
12 16.06 ЮЗ 2-4
{6}
40 км {дождь, морось} 6/0
[]
+19.9 +11.9 60 +22 +35 комфорт 1021.2 970.2
13 16.06 СВ 2 70 км 8/8 900 м
[]
+19.8 +12.7 64 +22 +25 комфорт 1021.0 970.0
14 16.06 СЗ 2 65 км 4/4 1500 м
[]
+21.0 +10.7 52 +24 +32 комфорт 1020.7 969.9
15 16.06 СВ 2 55 км 9/0
[]
+22.4 +11.7 51 +25 +30 комфорт 1020.1 969.5
16 16.06 СВ 2-3
{4}
70 км 6/0
[]
+21.6 +10.0 48 +23 +27 комфорт 1020.1 969.4
17 16.06 С 2-3
{3}
70 км ясно +22.2 +11.1 49 +24 +27 комфорт 1020.0 969.4
18 16.06 ЮВ 2 70 км ясно +21.1 +11.5 54 +23 +24 комфорт 1020.3 969.5 +13.6 +22.7
19 16.06 В 1-2
{3}
70 км ясно +18.9 +12.1 65 +21 +21 комфорт 1020.7 969.5
20 16.06 СВ 1-2
{2}
70 км ясно +16.8 +12.6 76 +18 +18 1021.0 969.5
21 16.06 СВ 2-3
{3}
70 км ясно +16.3 +13.0 81 +16 +16 1021.2 969.6
22 16.06 С 2-3
{3}
70 км ясно +15.7 +12.9 83 +16 +16 1021.3 969.6
23 16.06 С 2-4
{4}
70 км ясно +15.3 +12.4 83 +15 +15 1021.0 969.2
00 17.06 СВ 3 70 км ясно +15.5 +11.6 78 +15 +15 1020.9 969.1
01 17.06 СВ 2-4
{4}
70 км ясно +14.6 +11.7 83 +14 +14 1020.9 969.0
02 17.06 СВ 2-3
{3}
65 км ясно +14.2 +11.8 85 +14 +14 1020.6 968.6
03 17.06 СЗ 1-2
{4}
55 км ясно +13.3 +11.5 89 +13 +13 1020.3 968.2
04 17.06 СВ 2-3
{3}
35 км ясно +13.1 +11.8 92 +12 +12 1020.6 968.4
05 17.06 СВ 2-3
{3}
35 км ясно +14.4 +12.5 88 +14 +15 1020.3 968.4
06 17.06 СВ 2 35 км ясно +16.3 +13.2 82 +16 +20 1019.9 968.3 +13.0 +21.1
07 17.06 В 3-5
{5}
29 км ясно +17.8 +13.0 73 +18 +23 1019.6 968.3
08 17.06 В 3-5
{8}
30 км 3/3 660 м
[]
+20.0 +13.9 68 +22 +28 комфорт 1018.8 967.9
09 17.06 В 3 55 км 9/9 800 м
[]
+19.9 +13.9 68 +22 +23 комфорт 1018.2 967.4
10 17.06 СВ 2-4
{6}
55 км 9/9 930 м
[]
+21.9 +14.6 63 +25 +27 комфорт 1017.5 967.0
11 17.06 СВ 3-6
{6}
45 км 8/8 1020 м
[]
+23.1 +14.6 59 +27 +30 душно 1017.0 966.8
12 17.06 В 2 45 км 4/4 1110 м
[]
+24.0 +15.6 59 +27 +38 жарко 1016.4 966.4
13 17.06 СВ 3-5
{6}
30 км 3/3 1170 м
[]
+25.0 +15.0 54 +28 +37 жарко 1015.9 966.0
14 17.06 СВ 3-5
{6}
30 км ясно +25.8 +14.4 49 +28 +39 жарко 1015.3 965.6
15 17.06 С 3 30 км 1/1 1320 м
[]
+26.2 +14.2 48 +29 +36 жарко 1014.8 965.2
17 17.06 С 2-3
{4}
40 км ясно +26.3 +14.0 47 +29 +31 жарко 1014.2 964.6
18 17.06 СВ 2 60 км ясно +25.2 +14.3 51 +28 +29 жарко 1014.4 964.6 +16.3 +26.9
19 17.06 С 2-3
{4}
70 км ясно +22.9 +14.7 60 +27 +27 душно 1014.9 964.7
20 17.06 С 2-3
{3}
70 км ясно +21.0 +14.5 66 +25 +25 комфорт 1015.3 964.8

 

Местоположение метеостанции Констанция (Германия): широта 47.68 долгота 9.18 высота над уровнем моря 443 м.

В архиве по умолчанию представлена погода в Констанции за последнюю неделю. Архивные данные за месяц целиком и за предыдущие месяцы, начиная с января 2011 года, Вы можете получить, выбрав интересующий диапазон дат из раскрывающегося списка и нажав кнопку "Ввод!".


*Определитесь, кто Вы:
робот инопланетянин человек

Внимание! Время в таблицах - всемирное. Для получения местного времени необходимо прибавить поправку, которая равна 1 ч.

Смотрите также архив погоды в соседних городах и на ближайших метеорологических станциях:

Погода в Гуттингене (Швейцария) (12 км)
Погода в Хайденхаусе (Швейцария) (12 км)
Погода в Бишофсцелле (Швейцария) (23 км)
Погода в Тениконе (Швейцария) (31 км)
Погода в Санкт-Галлене (Швейцария) (32 км)
Погода в Санкт-Галлен-Альтенрайне (Швейцария) (35 км)
Погода в Хёрнли (Швейцария) (39 км)
Погода в Шаффхаузене (Швейцария) (42 км)
Погода в Эбнат-Каппеле (Швейцария) (45 км)
Погода в Брегенце (Австрия) (47 км)

Пояснения к столбцам:

Ветер - указаны скорость ветра в м/с - средняя за 10 мин, порывы в срок и между сроками (в фигурных скобках) и направление, откуда дует ветер: С - северный, СВ - северо-восточный, В - восточный, ЮВ - юго-восточный, Ю - южный, ЮЗ - юго-западный, З - западный, СЗ - северо-западный.
Видимость - горизонтальная дальность видимости в метрах или километрах. При видимости от 1 до 10 км при отсутствии осадков обычно наблюдается дымка, при ухудшении видимости до 1 км и менее - туман. В сухую погоду видимость может ухудшаться дымом, пылью или мглою.
Явления - указаны атмосферные явления, наблюдавшиеся в срок или в последний час перед сроком; фигурными скобками обозначены явления, наблюдавшиеся между сроками (за 1-3 часа до срока); квадратными скобками обозначены град или гололедные отложения с указанием их диаметра в мм.
Облачность - указаны через наклонную черту общая и нижняя облачность в баллах и высота нижней границы облаков в метрах; квадратными скобками обозначены формы облаков: Ci - перистые, Cs - перисто-слоистые, Cc - перисто-кучевые, Ac - высококучевые, As - высокослоистые, Sc - слоисто-кучевые, Ns - слоисто-дождевые, Cu - кучевые, Cb - кучево-дождевые. Подробнее классификацию облаков см. в Атласе облаков (PDF).
T - Температура воздуха - температура, измеренная на высоте 2 м над землей.
Td - Температура точки росы - температура, при понижении до которой содержащийся в воздухе водяной пар достигнет насыщения.
f - Относительная влажность воздуха - влажноcть воздуха, измеренная на высоте 2 м над землей.
Te - Эффективная температура - температура, которую ощущает одетый по сезону человек в тени. Характеристика душности погоды. При расчете учитывается влияние влажности воздуха и скорости ветра на теплоощущения человека.
Tes - Эффективная температура на солнце - температура, которую ощущает человек, с поправкой на солнечный нагрев. Характеристика знойности погоды. Зависит от высоты солнца над горизонтом, облачности и скорости ветра. Ночью, в пасмурную погоду, а также при ветре 12 м/с и более поправка равна нулю.
P - Атмосферное давление - приведенное к уровню моря атмосферное давление.
Po - Атмосферное давление - измеренное на уровне метеостанции атмосферное давление.
Tmin - Минимальная температура - минимум температуры воздуха на высоте 2 м над землей.
Tmax - Максимальная температура - максимум температуры воздуха на высоте 2 м над землей.
R - Количество осадков - Количество выпавших осадков за период времени, мм. При наведении курсора мыши на число - период времени, за который выпало указанное количество осадков.
R24 - Количество осадков - Количество выпавших осадков за 24 часа, мм.
S - Снежный покров - Высота снежного покрова, см. При наведении курсора мыши на число - состояние снежного покрова и степень покрытия местности в баллах.